{"data":{"norad_id":56294,"epoch":"2026-09-20T04:37:44.132160Z","epoch_age_seconds":135098,"freshness":"FRESH","line1":"1 56294U 23056J   26263.19287190  .00001733  00000+0  72500-4 0  9999","line2":"2 56294  43.0027 190.6608 0000925 266.2190  93.8556 15.27577427189782","mean_motion":15.27577427,"eccentricity":9.25e-5,"inclination_deg":43.0027,"raan_deg":190.6608,"arg_perigee_deg":266.219,"mean_anomaly_deg":93.8556,"bstar":7.25e-5,"rev_number":18978,"period_min":94.26690749339,"perigee_km":482.42214011155,"apogee_km":483.69146096465,"semimajor_km":6861.1938005381,"source":"CELESTRAK","updated_at":"2026-09-21T09:00:33.392624Z"}}